Location: Gro�sch�nbrunn
(49.5760°N, 11.8868°E)
Time: 02:02:33
(UTC+00:00)

Cosmos 1655 Rocket - Pass Details

Date: 18 September 2020
Orbit: 971 x 1005 km, 82.9° (Epoch: 30 October)

Event Time Altitude Azimuth Distance (km) Brightness Sun altitude
Rises 21:04:14 0° 347° (NNW) 3,686 7.9 -32.6°
Reaches altitude 10° 21:06:47 10° 344° (NNW) 2,738 7.1 -32.9°
Enters shadow 21:12:33 56° 281° (W) 1,161 4.4 -33.4°
